Location: Dos Palmas
(32.4468°N, 116.8732°W)
Time: 23:37:17
(UTC+00:00)

Cosmos 1300 - Pass Details

Date: 20 June 2021
Orbit: 509 x 513 km, 82.5° (Epoch: 01 August)

Event Time Altitude Azimuth Distance (km) Brightness Sun altitude
Rises 05:12:57 0° 6° (N) 2,626 7.0 -22.8°
Reaches altitude 10° 05:15:17 10° 17° (NNE) 1,736 5.8 -23.1°
Enters shadow 05:17:23 24° 44° (NE) 1,088 4.4 -23.4°
